{"data":{"norad_id":68255,"intl_designator":"2026-054Z","name":"STARLINK-37075","alt_names":[],"object_type":"PAYLOAD","status":"ACTIVE","operator":null,"country":"US","launch_date":"2026-03-17","launch_site_code":"AFETR","launch_vehicle":null,"mission":null,"orbit_class":"UNKNOWN","rcs_meters":null,"size_class":null,"mass_kg":null,"dimensions":null,"purposes":["comms"],"wikipedia_slug":null,"has_3d_model":false,"image_url":null,"decayed_at":null,"tle_current":{"epoch":"2026-09-19T23:56:14.732736Z","epoch_age_seconds":94534,"freshness":"FRESH","line1":"1 68255U 26054Z   26262.99739274  .00016394  00000+0  49493-3 0  9995","line2":"2 68255  53.1565 104.2145 0001251  97.9844 262.1301 15.34422430 28889","mean_motion":15.3442243,"eccentricity":0.0001251,"inclination_deg":53.1565,"raan_deg":104.2145,"arg_perigee_deg":97.9844,"mean_anomaly_deg":262.1301,"bstar":0.00049493,"rev_number":2888,"period_min":93.846386226249,"perigee_km":461.78079355815,"apogee_km":463.49235510645,"semimajor_km":6840.7735743323,"source":"CELESTRAK","updated_at":"2026-09-20T09:00:43.844178Z"}}}